Weather History for Pittsfield, MA

Change the Weather History Date:

Sunday, March 10, 2013

  Actual Average Record
Temperature  
Mean Temperature 35 °F 30 °F  
Max Temperature 50 °F 40 °F 60 °F (2006)
Min Temperature 19 °F 20 °F -6 °F (1943)
Degree Days  
Heating Degree Days 30 35  
Month to date heating degree days 350 366  
Since 1 July heating degree days 5289 5746  
Cooling Degree Days 0 0  
Month to date cooling degree days 0 0  
Year to date cooling degree days 0 0  
Moisture  
Dew Point 21 °F    
Average Humidity 60    
Maximum Humidity 96    
Minimum Humidity 24    
Precipitation  
Precipitation 0.00 in 0.08 in 1.24 in (1964)
Month to date precipitation 0.30 0.84  
Year to date precipitation 3.93 6.44  
Sea Level Pressure  
Sea Level Pressure 30.28 in    
Wind  
Wind Speed 3 mph (South)    
Max Wind Speed 14 mph    
Max Gust Speed 21 mph    
Visibility 10 miles    
Events      
T = Trace of Precipitation, MM = Missing Value Source: NWS Daily Summary

Daily Weather History Graph

Daily Weather History Graph

Search for Another Location

Airport:

Trip Planner

Search our weather history database for the weather conditions in past years. The results will help you decide how hot, cold, wet, or windy it might be!

Date:

Astronomy

Mar. 10, 2013 Rise Set
Actual Time 7:13 AM EDT 6:54 PM EDT
Civil Twilight 6:45 AM EDT 7:22 PM EDT
Nautical Twilight 6:12 AM EDT 7:54 PM EDT
Astronomical Twilight 5:39 AM EDT 8:27 PM EDT
Moon 6:12 AM EDT (3/10) 5:58 PM EDT (3/10)
Length of Visible Light 12h 36m
Length of Day
11h 40m
Waning Crescent, 2% of the Moon is Illuminated
Mar 10
Waning Crescent
Mar 11
New
Mar 19
First Quarter
Mar 27
Full
Apr 3
Last Quarter

Hourly Weather History & Observations

Time (EDT) Temp. Windchill Dew Point Humidity Pressure Visibility Wind Dir Wind Speed Gust Speed Precip Events Conditions
12:54 AM 21.9 °F - 19.0 °F 89% 30.32 in 10.0 mi Calm Calm - N/A   Clear
1:54 AM 23.0 °F - 21.0 °F 92% 30.32 in 10.0 mi Calm Calm - N/A   Clear
3:54 AM 21.9 °F - 19.0 °F 89% 30.30 in 10.0 mi Calm Calm - N/A   Clear
4:54 AM 21.0 °F - 19.0 °F 92% 30.32 in 10.0 mi Calm Calm - N/A   Clear
5:54 AM 19.9 °F - 17.1 °F 89% 30.34 in 9.0 mi Calm Calm - N/A   Clear
6:54 AM 19.9 °F - 17.1 °F 89% 30.35 in 10.0 mi Calm Calm - N/A   Clear
8:54 AM 27.0 °F - 23.0 °F 85% 30.36 in 10.0 mi Calm Calm - N/A   Clear
9:54 AM 32.0 °F - 23.0 °F 69% 30.35 in 10.0 mi Calm Calm - N/A   Clear
10:54 AM 39.0 °F 36.8 °F 21.9 °F 50% 30.33 in 10.0 mi NE 3.5 mph - N/A   Clear
11:54 AM 44.1 °F 40.8 °F 21.0 °F 40% 30.31 in 10.0 mi SE 5.8 mph - N/A   Clear
12:54 PM 46.9 °F - 19.9 °F 34% 30.30 in 10.0 mi Variable 4.6 mph - N/A   Clear
1:54 PM 48.0 °F - 21.9 °F 36% 30.28 in 10.0 mi SSE 5.8 mph 17.3 mph N/A   Clear
2:54 PM 48.9 °F - 18.0 °F 29% 30.26 in 10.0 mi South 9.2 mph - N/A   Clear
3:54 PM 50.0 °F - 19.0 °F 29% 30.24 in 10.0 mi South 11.5 mph - N/A   Clear
4:54 PM 50.0 °F - 19.0 °F 29% 30.23 in 10.0 mi Variable 6.9 mph - N/A   Clear
5:54 PM 50.0 °F - 15.1 °F 25% 30.22 in 10.0 mi SSW 6.9 mph - N/A   Scattered Clouds
6:54 PM 46.9 °F - 21.0 °F 36% 30.24 in 10.0 mi South 10.4 mph - N/A   Partly Cloudy
8:54 PM 44.1 °F 40.8 °F 25.0 °F 47% 30.23 in 10.0 mi SSE 5.8 mph - N/A   Clear
9:54 PM 42.1 °F - 25.0 °F 51% 30.23 in 10.0 mi Calm Calm - N/A   Clear
10:54 PM 41.0 °F - 25.0 °F 53% 30.22 in 10.0 mi Calm Calm - N/A   Partly Cloudy
11:54 PM 39.9 °F 36.7 °F 27.0 °F 60% 30.22 in 10.0 mi SSW 4.6 mph - N/A   Clear